Stations météo

réclame
Mon MeteoGroup
Nancy/Ochey, France (7181): Température de l'air & dewpoint: 14.11.2017 12:00:00 - 20.11.2017 12:00:00 (CET)Nancy/Ochey, France (7181): Température de l'air 5cm: 14.11.2017 12:00:00 - 20.11.2017 12:00:00 (CET)Nancy/Ochey, France (7181): Température de l'air -20cm & Température de l'air -100cm: 14.11.2017 12:00:00 - 20.11.2017 12:00:00 (CET)Nancy/Ochey, France (7181): Vitesse du vent & gusts: 14.11.2017 12:00:00 - 20.11.2017 12:00:00 (CET)Nancy/Ochey, France (7181): Direction du vent: 14.11.2017 12:00:00 - 20.11.2017 12:00:00 (CET)Nancy/Ochey, France (7181): reduced air pressure: 14.11.2017 12:00:00 - 20.11.2017 12:00:00 (CET)Nancy/Ochey, France (7181): visibility: 14.11.2017 12:00:00 - 20.11.2017 12:00:00 (CET)Nancy/Ochey, France (7181): Quantités de précipitations: 14.11.2017 12:00:00 - 20.11.2017 12:00:00 (CET)
Date & Time tt [°C] td [°C] tt 5cm [°C] tt -20cm [°C] tt -100cm [°C] ff [km/h] ff [knt] fx [km/h] fx [knt] dd ppp [hPa] vv [km] rr [mm]
20.11.2017 12:00:00 3,3 1,5 2,2 7,3 10,5 18 10 25 14 S 1024,2 10 0,0
20.11.2017 11:00:00 1,6 0,4 1,4 7,3 10,5 13 7 20 11 S 1025,7 10 0,0
20.11.2017 10:00:00 0,8 -0,2 0,0 7,4 10,5 13 7 23 12 SSW 1025,9 10 0,0
20.11.2017 09:00:00 0,1 -0,6 -1,0 7,4 10,5 16 9 23 13 SSW 1025,5 10 0,0
20.11.2017 08:00:00 0,0 -0,6 -1,9 7,5 10,5 16 9 24 13 SSW 1025,3 10 0,0
20.11.2017 07:00:00 -0,3 -0,7 -2,6 7,5 10,5 4 2 22 12 S 1025,4 17 0,0
20.11.2017 06:00:00 -0,5 -1,1 -4,7 7,5 10,5 5 3 14 8 S 1025,7 10 0,0
20.11.2017 05:00:00 -0,3 -0,7 -3,3 7,6 10,5 8 4 11 6 S 1025,6 10 0,0
20.11.2017 04:00:00 -0,3 -0,7 -2,7 7,6 10,5 9 5 11 6 S 1025,5 10 0,0
20.11.2017 03:00:00 -0,7 -1,3 -2,7 7,6 10,5 8 4 14 8 SSW 1025,9 10 0,0
20.11.2017 02:00:00 -0,5 -1,1 -3,7 7,7 10,5 9 5 14 7 SSW 1026,4 10 0,0
20.11.2017 01:00:00 -0,3 -1,0 -3,4 7,7 10,5 5 3 10 6 S 1026,8 10 0,0
20.11.2017 00:00:00 0,0 -0,9 -3,5 7,7 10,5 5 3 10 5 SSW 1026,6 10 0,0
19.11.2017 23:00:00 -0,3 -1,0 -3,0 7,7 10,5 8 4 13 7 SW 1026,8 10 0,0
19.11.2017 22:00:00 0,0 -1,1 -2,6 7,7 10,5 9 5 14 8 SW 1026,6 10 0,0
19.11.2017 21:00:00 0,0 -1,1 -4,9 7,7 10,5 9 5 11 6 WSW 1026,5 10 0,0
19.11.2017 20:00:00 0,5 -1,0 -4,7 7,8 10,6 5 3 12 6 SW 1025,9 10 0,0
19.11.2017 19:00:00 0,9 -1,0 -4,3 7,8 10,6 8 5 13 7 W 1025,2 58 0,0
19.11.2017 18:00:00 1,6 -0,8 -3,5 7,7 10,6 8 4 14 7 W 1024,7 10 0,0
19.11.2017 17:00:00 2,8 -0,3 -0,6 7,7 10,6 9 5 18 10 W 1023,9 10 0,0
19.11.2017 16:00:00 5,5 -0,1 2,9 7,7 10,6 11 6 17 9 W 1023,1 10 0,0
19.11.2017 15:00:00 5,8 0,5 5,8 7,7 10,5 11 6 26 14 WNW 1022,9 10 0,0
19.11.2017 14:00:00 7,4 1,5 7,4 7,7 10,5 15 8 24 13 W 1022,4 10 0,0
19.11.2017 13:00:00 6,8 1,3 6,9 7,7 10,5 13 7 26 14 W 1022,4 10 0,0
19.11.2017 12:00:00 7,0 2,5 7,9 7,7 10,5 18 10 35 19 WNW 1022,3 10 0,0
19.11.2017 11:00:00 6,1 3,4 5,4 7,7 10,6 11 6 26 14 WNW 1022,2 10 0,0
19.11.2017 10:00:00 4,8 4,1 4,3 7,7 10,6 11 6 17 9 WNW 1022,0 10 0,0
19.11.2017 09:00:00 4,4 4,1 1,8 7,7 10,6 5 3 13 7 W 1021,3 8 0,0
19.11.2017 08:00:00 4,0 3,7 2,0 7,7 10,6 9 5 18 10 W 1020,5 8 0,0
19.11.2017 07:00:00 5,0 4,7 4,6 7,7 10,6 8 4 20 11 W 1019,8 10 0,0
19.11.2017 06:00:00 5,2 5,1 4,3 7,8 10,6 13 7 21 12 W 1019,3 7 0,0
19.11.2017 05:00:00 4,5 4,2 3,8 7,8 10,6 13 7 31 17 SSW 1019,0 4,4 0,0
19.11.2017 04:00:00 4,1 3,7 3,6 7,8 10,6 26 14 35 19 SSW 1019,1 10 0,6
19.11.2017 03:00:00 4,0 3,6 3,6 7,8 10,6 26 14 35 19 SSW 1019,7 7 0,8
19.11.2017 02:00:00 4,0 3,4 3,5 7,8 10,6 22 12 30 16 SW 1020,1 9 0,2
19.11.2017 01:00:00 3,9 3,3 3,2 7,8 10,6 18 10 39 21 SW 1021,0 6 0,2
19.11.2017 00:00:00 3,8 2,8 3,1 7,8 10,6 28 15 39 21 SW 1021,4 10 0,0
18.11.2017 23:00:00 3,9 2,4 2,9 7,8 10,6 24 13 32 18 SW 1022,0 10 0,0
18.11.2017 22:00:00 3,7 2,2 2,7 7,8 10,6 18 10 27 15 SSW 1022,8 10 0,0
18.11.2017 21:00:00 4,0 1,5 2,6 7,8 10,6 23 12 30 16 SSW 1023,4 32 0,0
18.11.2017 20:00:00 3,7 1,2 2,4 7,7 10,6 16 9 24 13 SSW 1023,6 10 0,0
18.11.2017 19:00:00 4,5 1,5 3,9 7,8 10,6 15 8 26 14 SW 1024,0 10 0,0
18.11.2017 18:00:00 4,7 1,2 4,0 7,7 10,6 16 9 27 14 WSW 1024,2 44 0,0
18.11.2017 17:00:00 4,9 1,4 4,2 7,7 10,6 11 6 21 11 WSW 1024,1 38 0,0
18.11.2017 16:00:00 5,0 1,3 4,8 7,7 10,6 15 8 21 12 SW 1024,2 10 0,0
18.11.2017 15:00:00 5,4 0,9 6,4 7,7 10,6 13 7 24 13 SW 1024,4 10 0,0
18.11.2017 14:00:00 5,5 1,8 5,0 7,7 10,6 15 8 21 11 WSW 1024,6 10 0,0
18.11.2017 13:00:00 4,5 2,2 3,7 7,7 10,6 5 3 15 8 WSW 1025,7 10 0,0
18.11.2017 12:00:00 2,6 1,3 3,8 7,7 10,6 8 4 16 9 W 1026,6 10 0,0
18.11.2017 11:00:00 2,1 1,7 2,9 7,7 10,6 11 6 16 9 W 1026,9 9 0,0
18.11.2017 10:00:00 2,1 1,7 2,8 7,7 10,7 9 5 17 9 WSW 1026,6 7 0,0
18.11.2017 09:00:00 1,9 1,3 2,3 7,7 10,7 8 4 12 7 W 1026,3 10 0,0
18.11.2017 08:00:00 2,1 1,7 2,1 7,7 10,7 8 4 12 6 SW 1025,8 10 0,0
18.11.2017 07:00:00 2,6 2,3 2,1 7,7 10,7 9 5 16 8 NW 1025,8 9 0,0
18.11.2017 06:00:00 2,6 2,5 0,7 7,7 10,7 8 4 13 7 NNW 1025,8 7 0,0
18.11.2017 05:00:00 3,8 3,7 3,1 7,6 10,7 5 3 11 6 WNW 1025,5 9 0,0
18.11.2017 04:00:00 4,4 4,4 3,7 7,6 10,7 4 2 6 4 - 1025,7 7 0,0
18.11.2017 03:00:00 4,5 4,5 4,0 7,6 10,7 3 2 7 4 WSW 1026,1 3,3 0,0
18.11.2017 02:00:00 4,7 4,7 4,5 7,6 10,7 5 3 9 5 WSW 1026,0 5 0,0
18.11.2017 01:00:00 4,7 4,7 4,6 7,6 10,7 0 0 11 6 N 1026,4 6 0,0
18.11.2017 00:00:00 4,9 4,9 4,9 7,6 10,7 5 3 11 6 NNW 1026,3 4,3 0,0
17.11.2017 23:00:00 5,1 5,1 5,0 7,6 10,7 0 0 6 3 N 1026,7 0,6 0,0
17.11.2017 22:00:00 5,0 5,0 4,9 7,5 10,7 4 2 7 4 N 1026,9 1,6 0,0
17.11.2017 21:00:00 5,0 5,0 4,9 7,5 10,7 4 2 6 3 NW 1026,9 1,0 0,0
17.11.2017 20:00:00 4,9 4,9 4,8 7,5 10,7 0 0 4 2 N 1026,8 0,8 0,0
17.11.2017 19:00:00 4,8 4,8 4,7 7,5 10,7 0 0 8 4 N 1026,7 0,7 0,0
17.11.2017 18:00:00 4,9 4,9 4,9 7,5 10,7 5 3 10 6 ESE 1026,8 1,8 0,0
17.11.2017 17:00:00 5,1 5,1 5,2 7,5 10,7 8 4 15 8 ENE 1026,7 3,9 0,0
17.11.2017 16:00:00 5,2 5,2 5,7 7,5 10,8 11 6 16 9 N 1027,1 3,7 0,0
17.11.2017 15:00:00 5,0 5,0 6,0 7,4 10,8 9 5 14 7 N 1026,8 1,5 0,0
17.11.2017 14:00:00 4,6 4,6 5,5 7,5 10,7 5 3 10 6 - 1027,1 0,6 0,0
17.11.2017 13:00:00 4,6 4,6 6,0 7,4 10,7 3 2 6 4 NNW 1027,3 1,0 -
17.11.2017 12:00:00 3,9 3,9 5,0 7,5 10,8 4 2 9 5 - 1027,7 0,4 -
17.11.2017 11:00:00 3,4 3,4 4,1 7,5 10,8 - - - - - 1028,1 0,4 0,0
17.11.2017 10:00:00 2,9 2,9 3,2 7,5 10,8 5 3 8 5 - 1027,9 0,4 0,0
17.11.2017 09:00:00 2,1 2,1 1,9 7,5 10,8 4 2 6 4 NNE 1027,9 3,0 0,0
17.11.2017 08:00:00 1,7 1,7 1,7 7,5 10,8 0 0 6 3 N 1027,7 4,5 0,0
17.11.2017 07:00:00 1,6 1,6 1,6 7,5 10,8 0 0 4 2 N 1027,6 6 0,0
17.11.2017 06:00:00 1,2 1,2 1,4 7,5 10,8 0 0 4 2 N 1027,4 6 0,4
17.11.2017 05:00:00 1,0 1,0 1,0 7,5 10,8 0 0 4 2 N 1027,5 5 0,0
17.11.2017 04:00:00 0,8 0,8 0,5 7,5 10,8 2 1 8 4 - 1027,3 4,1 0,0
17.11.2017 03:00:00 0,6 0,6 0,4 7,5 10,8 4 2 7 4 - 1027,0 3,8 0,0
17.11.2017 02:00:00 0,5 0,5 0,4 7,6 10,8 3 1 8 4 E 1027,3 1,2 0,0
17.11.2017 01:00:00 0,4 0,4 0,4 7,6 10,8 0 0 7 4 N 1027,7 0,5 0,0
17.11.2017 00:00:00 0,3 0,3 0,4 7,6 10,8 4 2 8 4 - 1027,8 0,8 0,0
16.11.2017 23:00:00 0,3 0,3 0,4 7,6 10,8 4 2 11 6 - 1027,6 0,7 0,0
16.11.2017 22:00:00 0,6 0,6 0,6 7,6 10,8 5 3 10 6 SSE 1027,2 0,7 0,0
16.11.2017 21:00:00 0,6 0,6 0,6 7,6 10,8 5 3 9 5 SE 1027,3 4,1 0,0
16.11.2017 20:00:00 0,6 0,6 0,6 7,6 10,8 0 0 9 5 N 1027,0 2,6 0,0
16.11.2017 19:00:00 0,6 0,6 0,7 7,6 10,8 4 2 11 6 S 1026,7 0,8 0,0
16.11.2017 18:00:00 0,7 0,7 0,8 7,6 10,8 4 2 11 6 - 1026,4 0,6 0,0
16.11.2017 17:00:00 0,7 0,7 0,9 7,7 10,8 5 3 10 6 SSE 1026,1 0,5 0,0
16.11.2017 16:00:00 1,0 1,0 1,5 7,7 10,9 4 2 10 5 ESE 1026,1 0,4 0,0
16.11.2017 15:00:00 1,0 1,0 1,7 7,7 10,9 5 3 11 6 SE 1026,0 0,2 0,0
16.11.2017 14:00:00 0,8 0,8 2,0 7,7 10,9 0 0 13 7 N 1026,1 0,6 0,0
16.11.2017 13:00:00 0,8 0,8 2,7 7,8 10,9 4 2 10 5 - 1026,1 0,6 0,0
16.11.2017 12:00:00 0,3 0,3 1,6 7,8 10,9 2 1 10 5 - 1026,5 0,3 0,0
16.11.2017 11:00:00 0,0 0,0 1,0 7,8 10,9 0 0 10 5 N 1026,8 0,3 0,0
16.11.2017 10:00:00 -0,1 -0,1 0,0 7,8 10,9 8 4 18 10 ESE 1025,9 0,3 0,0
16.11.2017 09:00:00 -0,5 -0,5 -0,3 7,9 10,9 9 5 14 8 E 1026,0 0,3 0,0
16.11.2017 08:00:00 -0,5 -0,5 -1,3 7,9 10,9 5 3 12 6 E 1025,3 0,5 0,0
16.11.2017 07:00:00 -1,3 -1,3 -2,9 7,9 10,9 5 3 6 4 ENE 1025,5 8 0,0
16.11.2017 06:00:00 -2,0 -2,0 -5,9 8,0 10,9 4 2 6 3 NW 1025,4 5 0,0
16.11.2017 05:00:00 -0,3 -0,3 -5,9 8,0 10,9 4 2 10 5 - 1025,1 9 0,0
16.11.2017 04:00:00 -2,5 -2,5 -5,6 8,0 10,9 0 0 6 3 N 1025,7 0,5 0,0
16.11.2017 03:00:00 -1,6 -1,6 -5,4 8,0 10,9 0 0 4 2 N 1025,6 1,3 0,0
16.11.2017 02:00:00 -1,9 -1,9 -4,0 8,0 10,9 2 1 4 2 NNW 1026,0 1,2 0,0
16.11.2017 01:00:00 -0,6 -0,6 -2,3 8,0 10,9 0 0 4 2 N 1025,8 0,5 0,0
16.11.2017 00:00:00 -0,2 -0,2 -1,1 8,0 10,9 4 2 5 3 N 1026,2 0,3 0,0
15.11.2017 23:00:00 0,3 0,3 -0,5 8,0 10,9 0 0 7 4 N 1026,2 0,3 0,0
15.11.2017 22:00:00 1,2 1,2 0,9 8,0 10,9 5 3 9 5 NNW 1026,6 0,4 0,0
15.11.2017 21:00:00 1,2 1,2 0,9 8,0 10,9 4 2 8 5 - 1026,5 0,4 0,0
15.11.2017 20:00:00 1,7 1,7 1,8 8,0 10,9 5 3 13 7 N 1026,6 0,3 0,0
15.11.2017 19:00:00 2,1 2,1 -1,4 8,0 10,9 9 5 15 8 N 1026,8 0,5 0,0
15.11.2017 18:00:00 1,9 1,8 -1,1 8,0 11,0 5 3 12 6 N 1026,6 3,9 0,0
15.11.2017 17:00:00 2,8 2,5 1,8 8,0 10,9 9 5 15 8 N 1026,4 9 0,0
15.11.2017 16:00:00 3,9 3,5 5,1 8,0 10,9 11 6 16 8 NNW 1026,4 10 0,0
15.11.2017 15:00:00 3,9 3,6 6,2 8,0 10,9 9 5 16 9 N 1026,4 10 0,0
15.11.2017 14:00:00 3,9 3,8 7,1 8,0 10,9 13 7 17 9 N 1026,6 10 0,0
15.11.2017 13:00:00 3,5 3,5 6,0 8,0 10,9 9 5 14 8 N 1027,3 10 0,0
15.11.2017 12:00:00 2,8 2,8 4,1 8,1 10,9 5 3 11 6 N 1027,9 0,7 0,0
15.11.2017 11:00:00 1,9 1,9 2,8 8,1 11,0 8 4 11 6 NNE 1028,5 0,4 0,0
15.11.2017 10:00:00 1,0 1,0 1,1 8,1 11,0 8 4 11 6 NNE 1028,4 0,3 0,0
15.11.2017 09:00:00 0,1 0,1 -0,3 8,1 10,9 5 3 9 5 - 1028,6 0,2 0,0
15.11.2017 08:00:00 -0,7 -0,7 -0,7 8,2 11,0 4 2 8 4 - 1028,7 0,3 0,0
15.11.2017 07:00:00 -0,8 -0,8 -0,6 8,2 10,9 4 2 8 5 - 1028,4 0,4 0,0
15.11.2017 06:00:00 -0,8 -0,8 -0,3 8,2 11,0 5 3 10 5 N 1028,2 0,1 0,0
15.11.2017 05:00:00 -0,3 -0,3 -0,1 8,2 11,0 2 1 6 4 - 1028,2 0,4 0,0
15.11.2017 04:00:00 -0,2 -0,2 -0,4 8,2 11,0 2 1 7 4 N 1028,1 0,3 0,0
15.11.2017 03:00:00 -0,5 -0,5 -0,6 8,2 11,0 0 0 11 6 N 1029,0 0,4 0,0
15.11.2017 02:00:00 0,2 0,2 0,4 8,2 11,0 0 0 6 3 N 1028,9 0,3 0,0
15.11.2017 01:00:00 0,5 0,5 0,6 8,2 11,0 0 0 6 3 N 1028,9 0,3 0,0
15.11.2017 00:00:00 0,7 0,7 1,0 8,2 10,9 0 0 6 4 N 1029,2 0,3 0,0
14.11.2017 23:00:00 1,4 1,4 1,7 8,3 11,0 0 0 5 3 N 1028,9 0,3 0,0
14.11.2017 22:00:00 1,8 1,8 1,8 8,3 11,0 3 2 11 6 ESE 1028,9 0,1 0,0
14.11.2017 21:00:00 1,8 1,8 0,7 8,3 11,0 8 4 10 5 SE 1028,9 0,4 0,0
14.11.2017 20:00:00 1,2 1,2 -0,7 8,3 11,0 0 0 6 3 N 1029,0 0,3 0,0
14.11.2017 19:00:00 1,3 1,3 -0,2 8,3 11,0 0 0 5 3 N 1028,8 1,1 0,0
14.11.2017 18:00:00 1,5 1,5 -0,9 8,3 11,0 4 2 9 5 SE 1028,2 0,7 0,0
14.11.2017 17:00:00 1,6 1,5 -1,2 8,3 11,0 2 1 6 3 W 1028,1 0,6 0,0
14.11.2017 16:00:00 3,0 3,0 3,6 8,3 11,0 4 2 6 4 - 1027,6 0,7 0,0
14.11.2017 15:00:00 3,5 3,5 6,6 8,3 11,0 4 2 8 4 - 1027,4 1,0 0,0
14.11.2017 14:00:00 3,1 3,1 6,4 8,4 11,0 4 2 9 5 - 1027,5 0,4 0,0
14.11.2017 13:00:00 2,8 2,8 6,0 8,4 11,0 5 3 8 5 - 1027,7 0,3 0,0
14.11.2017 12:00:00 2,1 2,1 4,6 8,4 11,0 0 0 8 5 N 1028,1 0,2 0,0

tt = Température de l'air
td = dewpoint
tt 5cm = Température de l'air 5cm
tt -20cm = Température de l'air -20cm
tt -100cm = Température de l'air -100cm
ff = Vitesse du vent
fx = gusts
dd = Direction du vent
ppp = reduced air pressure
vv = visibility
rr = Quantités de précipitations

stations d'obs. à proximité